AXM6453 WBGR-WBGG

Flight info

Callsign AXM6453
Flight time N/A
Altitude 30000
Route WBGR/02 BIPAS1A BIPAS DCT SARVO G580 PILAX1A WBGG/25
Aircraft A320/M-SDE3FGHIRWY/LB1

Departure

Time 2026-04-30 02:38
Airport Miri Airport (WBGR)

Arrival

Time N/A
Airport Kuching International Airport (WBGG)
Time Latitude Longitude Altitude Speed Heading
2026-04-30 02:11 4.32514 113.98440 58 ft 0 kts 295°
2026-04-30 02:28 4.32512 113.98446 62 ft 4 kts 296°
2026-04-30 02:29 4.32499 113.98470 62 ft 4 kts 300°
2026-04-30 02:29 4.32485 113.98493 58 ft 4 kts 302°
2026-04-30 02:29 4.32472 113.98516 58 ft 4 kts 285°
2026-04-30 02:29 4.32472 113.98534 62 ft 1 kts 224°
2026-04-30 02:31 4.32453 113.98517 58 ft 6 kts 218°
2026-04-30 02:32 4.32397 113.98489 58 ft 11 kts 204°
2026-04-30 02:32 4.32329 113.98458 56 ft 11 kts 205°
2026-04-30 02:32 4.32264 113.98429 60 ft 9 kts 191°
2026-04-30 02:32 4.32221 113.98469 59 ft 8 kts 119°
2026-04-30 02:33 4.32166 113.98476 62 ft 10 kts 202°
2026-04-30 02:33 4.32096 113.98444 64 ft 14 kts 205°
2026-04-30 02:33 4.31994 113.98396 64 ft 18 kts 205°
2026-04-30 02:33 4.31869 113.98337 65 ft 21 kts 204°
2026-04-30 02:34 4.31735 113.98276 67 ft 21 kts 206°
2026-04-30 02:34 4.31601 113.98211 72 ft 21 kts 206°
2026-04-30 02:34 4.31466 113.98148 67 ft 22 kts 204°
2026-04-30 02:34 4.31321 113.98081 69 ft 23 kts 204°
2026-04-30 02:35 4.31234 113.98062 69 ft 11 kts 170°
2026-04-30 02:35 4.31200 113.98114 68 ft 8 kts 114°
2026-04-30 02:35 4.31177 113.98163 64 ft 7 kts 115°
2026-04-30 02:35 4.31178 113.98203 64 ft 5 kts 69°
2026-04-30 02:36 4.31201 113.98226 68 ft 4 kts 31°
2026-04-30 02:36 4.31227 113.98237 68 ft 4 kts 23°
2026-04-30 02:36 4.31228 113.98238 60 ft 0 kts 23°
2026-04-30 02:37 4.31355 113.98295 71 ft 56 kts 25°
2026-04-30 02:37 4.31690 113.98452 64 ft 103 kts 25°
2026-04-30 02:37 4.32540 113.98850 70 ft 160 kts 26°
2026-04-30 02:37 4.34000 113.99509 587 ft 187 kts 23°
2026-04-30 02:38 4.34816 113.99847 986 ft 196 kts 23°
2026-04-30 02:38 4.36099 114.00382 1663 ft 203 kts 23°
2026-04-30 02:38 4.37474 114.00694 2426 ft 199 kts 352°
2026-04-30 02:38 4.38713 114.00092 3132 ft 206 kts 309°
2026-04-30 02:39 4.39192 113.98718 3397 ft 230 kts 264°
2026-04-30 02:39 4.38555 113.97201 3781 ft 252 kts 229°
2026-04-30 02:39 4.37253 113.95926 4300 ft 269 kts 220°
2026-04-30 02:39 4.35786 113.94713 5109 ft 276 kts 218°
2026-04-30 02:40 4.34271 113.93491 5753 ft 283 kts 218°
2026-04-30 02:40 4.32753 113.92232 5951 ft 283 kts 220°
2026-04-30 02:40 4.31263 113.90942 6004 ft 283 kts 221°
2026-04-30 02:40 4.29790 113.89626 6086 ft 286 kts 221°
2026-04-30 02:41 4.28311 113.88274 6938 ft 288 kts 222°
2026-04-30 02:41 4.26831 113.86907 7815 ft 291 kts 222°
2026-04-30 02:41 4.25315 113.85503 8625 ft 295 kts 222°
2026-04-30 02:41 4.23820 113.84120 9352 ft 299 kts 222°
2026-04-30 02:42 4.22273 113.82695 10089 ft 304 kts 222°
2026-04-30 02:42 4.20662 113.81215 10374 ft 326 kts 221°
2026-04-30 02:42 4.18948 113.79596 10550 ft 350 kts 226°
2026-04-30 02:42 4.17347 113.77685 10952 ft 363 kts 230°
2026-04-30 02:43 4.15731 113.75708 11572 ft 369 kts 230°
2026-04-30 02:43 4.14086 113.73705 12217 ft 374 kts 230°
2026-04-30 02:43 4.12424 113.71686 12861 ft 378 kts 230°
2026-04-30 02:43 4.10739 113.69642 13510 ft 382 kts 230°
2026-04-30 02:44 4.09040 113.67577 14173 ft 385 kts 230°
2026-04-30 02:44 4.07328 113.65496 14804 ft 388 kts 230°
2026-04-30 02:44 4.05602 113.63397 15422 ft 391 kts 230°
2026-04-30 02:44 4.03866 113.61288 16005 ft 394 kts 229°
2026-04-30 02:45 4.02110 113.59159 16584 ft 397 kts 229°
2026-04-30 02:45 4.00350 113.57023 17166 ft 400 kts 229°
2026-04-30 02:45 3.98568 113.54861 17725 ft 403 kts 229°
2026-04-30 02:45 3.96798 113.52715 18244 ft 407 kts 229°
2026-04-30 02:46 3.94988 113.50520 18774 ft 410 kts 229°
2026-04-30 02:46 3.93165 113.48305 19286 ft 413 kts 229°
2026-04-30 02:46 3.91324 113.46070 19783 ft 417 kts 229°
2026-04-30 02:46 3.89505 113.43796 20269 ft 421 kts 231°
2026-04-30 02:47 3.87716 113.41457 20759 ft 424 kts 232°
2026-04-30 02:47 3.85942 113.39076 21219 ft 428 kts 232°
2026-04-30 02:47 3.84168 113.36665 21667 ft 431 kts 232°
2026-04-30 02:47 3.82382 113.34249 22094 ft 434 kts 232°
2026-04-30 02:48 3.80566 113.31816 22511 ft 437 kts 232°
2026-04-30 02:48 3.78729 113.29372 22901 ft 440 kts 231°
2026-04-30 02:48 3.76880 113.26925 23261 ft 443 kts 231°
2026-04-30 02:48 3.75012 113.24456 23659 ft 446 kts 231°
2026-04-30 02:49 3.73141 113.21979 24017 ft 448 kts 231°
2026-04-30 02:49 3.71252 113.19478 24370 ft 451 kts 231°
2026-04-30 02:49 3.69354 113.16968 24716 ft 453 kts 231°
2026-04-30 02:49 3.67450 113.14452 25053 ft 455 kts 231°
2026-04-30 02:50 3.65534 113.11915 25380 ft 457 kts 231°
2026-04-30 02:50 3.63611 113.09364 25699 ft 459 kts 231°
2026-04-30 02:50 3.61686 113.06810 26008 ft 462 kts 231°
2026-04-30 02:50 3.59747 113.04236 26306 ft 463 kts 231°
2026-04-30 02:51 3.57827 113.01687 26607 ft 465 kts 231°
2026-04-30 02:51 3.55851 112.99070 26907 ft 467 kts 231°
2026-04-30 02:51 3.53886 112.96472 27190 ft 469 kts 231°
2026-04-30 02:51 3.51914 112.93866 27451 ft 471 kts 231°
2026-04-30 02:52 3.49937 112.91254 27717 ft 473 kts 231°
2026-04-30 02:52 3.47948 112.88622 27987 ft 474 kts 231°
2026-04-30 02:52 3.45954 112.85980 28259 ft 476 kts 231°
2026-04-30 02:52 3.43962 112.83339 28508 ft 477 kts 232°
2026-04-30 02:53 3.42004 112.80645 28748 ft 479 kts 233°
2026-04-30 02:53 3.40105 112.77906 28979 ft 481 kts 234°
2026-04-30 02:53 3.38232 112.75120 29196 ft 482 kts 235°
2026-04-30 02:53 3.36366 112.72317 29420 ft 484 kts 235°
2026-04-30 02:54 3.34497 112.69516 29636 ft 485 kts 235°
2026-04-30 02:54 3.32604 112.66709 29827 ft 487 kts 234°
2026-04-30 02:54 3.30703 112.63919 29917 ft 482 kts 234°
2026-04-30 02:55 3.26940 112.58454 29924 ft 474 kts 234°
2026-04-30 02:55 3.23203 112.53033 29925 ft 473 kts 234°
2026-04-30 02:56 3.19482 112.47609 29923 ft 469 kts 234°
2026-04-30 02:56 3.17670 112.44964 29924 ft 456 kts 234°
2026-04-30 02:56 3.15856 112.42316 29926 ft 465 kts 234°
2026-04-30 02:57 3.12177 112.36957 29925 ft 473 kts 234°
2026-04-30 02:57 3.08427 112.31500 29928 ft 473 kts 234°
2026-04-30 02:58 3.04728 112.26115 29934 ft 473 kts 234°
2026-04-30 02:58 3.01000 112.20680 29934 ft 473 kts 234°
2026-04-30 02:59 2.97277 112.15259 29934 ft 473 kts 234°
2026-04-30 02:59 2.93549 112.09834 29924 ft 473 kts 234°
2026-04-30 03:00 2.89824 112.04408 29926 ft 473 kts 233°
2026-04-30 03:00 2.85542 111.99438 29931 ft 471 kts 226°
2026-04-30 03:01 2.81171 111.94562 29940 ft 471 kts 226°
2026-04-30 03:01 2.76799 111.89683 29950 ft 471 kts 226°
2026-04-30 03:02 2.72428 111.84808 29951 ft 471 kts 226°
2026-04-30 03:02 2.68045 111.79919 29944 ft 470 kts 226°
2026-04-30 03:03 2.63675 111.75043 29950 ft 471 kts 227°
2026-04-30 03:03 2.57112 111.67728 29941 ft 471 kts 226°
2026-04-30 03:04 2.52738 111.62860 29942 ft 470 kts 226°
2026-04-30 03:04 2.48369 111.57994 29941 ft 470 kts 226°
2026-04-30 03:05 2.46913 111.56371 29710 ft 471 kts 226°